Simultaneous Nadir Overpasses (SNOs) Predictions

Prediction of SNOs between LANDSAT-8 and NPP Satellite Orbit:

Table of predicted SNOs for the next 14.0 days since TLE Epoch: 1/4/2014
Index Date (LANDSAT-8) Time (LANDSAT-8) Lat,Lon (LANDSAT-8) SZA (LANDSAT-8 ) Date (NPP) Time (NPP) Lat,Lon (NPP) SZA (NPP ) Distance(km) Time Diff (sec)
1 01/06/2014 06:10:17 -70.15, -95.81 87.41 01/06/2014 06:09:36 -70.17, -95.75 87.39 3.20 41
2 01/06/2014 06:59:43 70.09, 71.75 92.54 01/06/2014 07:00:21 70.08, 71.69 92.53 2.76 38
3 01/08/2014 21:37:09 70.50,-147.05 92.60 01/08/2014 21:35:58 70.54,-147.89 92.68 31.30 71
4 01/08/2014 22:26:43 -70.17, 20.10 87.73 01/08/2014 22:26:34 -70.15, 20.05 87.74 3.07 9
5 01/08/2014 23:16:11 70.00,-172.49 92.11 01/08/2014 23:17:18 70.02,-172.44 92.12 2.28 67
6 01/11/2014 13:53:40 70.22, -31.57 91.94 01/11/2014 13:52:50 70.22, -31.61 91.95 1.34 50
7 01/11/2014 14:43:10 -70.11, 135.91 88.17 01/11/2014 14:43:31 -70.09, 135.91 88.20 2.51 21
8 01/14/2014 05:20:25 -71.07, -82.05 87.68 01/14/2014 05:19:18 -71.08, -84.55 87.58 90.12 67
9 01/14/2014 06:10:05 70.19, 84.28 91.47 01/14/2014 06:09:46 70.17, 84.24 91.46 2.56 19
10 01/14/2014 06:59:35 -70.09,-108.24 88.64 01/14/2014 07:00:28 -70.09,-108.32 88.64 2.91 53
11 01/16/2014 21:37:04 -70.25, 32.61 88.96 01/16/2014 21:35:59 -70.26, 32.57 88.94 1.38 65
12 01/16/2014 22:26:31 70.14,-159.91 90.93 01/16/2014 22:26:43 70.13,-159.93 90.93 0.86 12
13 01/16/2014 23:16:07 -69.70, 7.11
